星链-1013 (STARLINK-1013 )

导读 | 豆包AI

STARLINK-1013是美国SpaceX星链星座中的卫星,于2019年11月11日发射入轨,属于星链项目早期组网卫星,旨在为全球提供低延迟、高速率的宽带互联网服务。星链星座依托近地轨道部署,这颗卫星承担了系统初期技术验证与基础组网任务,支撑星座服务能力的测试与构建。

Basic Information
目录编号:
44719
目录名称:
STARLINK-1013
国际标识:
2019-074G
轨道中心:
EARTH
卫星名称:
星链-1013
卫星全名:
星链-1013 (STARLINK-1013 )
卫星状态:
已陨落 最后检测时间 2025-09-01
发射日期:
2019-11-11 UTC
国别 :
美国 (US)
星等 :
--
Orbit Information
数据来源 国际轨道数据
星历时间: 2025-09-01T10:56:59+0800
轨道信息已过期194天
半长轴: 6521.208km
偏心率: 0.000748
轨道倾角: 53.032°
近地点辐角 235.461°
升交点赤经 254.921°
平近点角 124.574°
近地点: 138.195km
远地点: 147.951km
周期: 87.348分钟
每日圈数: 16.485826
Detailed Information
固有亮度:
5
最大亮度:
2.5
卫星平台:
Starlink V1.0
覆盖范围:
全球
运营商:
太空探索技术公司
运营商所在国:
美国
制造商(研发单位):
太空探索技术公司
制造商所在国:
美国
使用方式:
暂无
Satellite Introduction
星链(Starlink)计划是由太空探索技术公司(SpaceX)提出的一个巨型低轨卫星互联网星座项目,计划在2019年至2024年间在太空搭建由约1.2万颗卫星组成的“星链”网络,其中1584颗将部署在地球上空550千米处的近地轨道,并从2020年开始工作。该卫星仍在工作。